Starlink 30237

operational
NORAD ID: 57437 Int'l Des: 2023-105 Owner: SPXS Country: US Constellation: starlink
LEOCIRCULAR

About Starlink 30237

Description loading...

Live Position

Loading 3D Globe...

Upcoming Passes

Altitude History

Altitude vs Time

uPlot chart will show altitude changes over time

Two-Line Element Set

1 57437U 23105H 26035.09851860 .00066644 00000-0 14458-2 0 9990
2 57437 43.0013 70.0248 0003625 153.5763 206.5279 15.43514351140677
Epoch: Feb 4, 2026 • Age: 8 hours

Current Status

Altitude 436.4 km
Velocity 7.65 km/s
Sub-Earth Point 14.20°N, 155.89°E
Launch Date Jul 24, 2023
Age 2.5 years
Type internet

Technical Details

Classification Payload
Mass 730.00 kg
Dry Mass 700.00 kg
Total Mass 730.00 kg
Length 0.30 m
Diameter 4.10 m
Span 29.00 m
Shape Box + pan
Manufacturer SPXS
Bus Type Starlink V2M
Phase Status In Orbit
Owner/State SPXS/US

Large Constellations

Loading constellations...